Location: Mexico
(19.4000°N, 99.1500°W)
Time: 08:43:57

ISS - Pass Details

Date: 20 March 2018
Orbit: 403 x 406 km, 51.6° (Epoch: 17 March)

Event Time Altitude Azimuth Distance (km) Brightness Sun altitude
Exits shadow 05:42:46 - 336° (NNW) 2,223 -0.3 -14.5°
Reaches altitude 10° 05:44:49 10° 349° (NNW) 1,451 -1.1 -14.0°
Maximum altitude 05:47:37 26° 48° (NE) 827 -1.6 -13.3°
Drops below altitude 10° 05:50:24 10° 108° (ESE) 1,447 0.1 -12.7°
Sets 05:52:41 0° 121° (ESE) 2,304 1.0 -12.1°
